Location: Allos
(44.2333°N, 6.6333°E)
Time: 20:06:56
(UTC+00:00)

Cosmos 2228 Rocket - Pass Details

Date: 26 April 2021
Orbit: 617 x 652 km, 82.5° (Epoch: 05 May)

Event Time Altitude Azimuth Distance (km) Brightness Sun altitude
Exits shadow 00:01:38 27° 339° (NNW) 1,212 5.0 -31.8°
Drops below altitude 10° 00:03:52 10° 356° (N) 1,994 6.5 -31.8°
Sets 00:06:11 0° 3° (N) 2,907 7.6 -31.7°
